Binfield, United Kingdom
Current Conditions -  °F | °C
As of 4:20 PM on Friday 24 Oct 2014 (Local Time) from EGLF Reporting Station
Broken Clouds Broken Clouds  
Wind Chill: 16°   Ceiling: 2400
Heat Index: 16°   Visibility: 6mi
Dew Point: 14°   Wind: 8mph
Humidity: 88%   Direction: 210°SSW
Pressure: 29.91"   Gusts: NA
Location:  51.42°N, 0.78°W
Report Text: EGLF 241520Z 21007KT 9999 FEW016 BKN024 16/14 Q1013
Loading
Personal Weather Stations






























Interactive Weather Map
Tropical Storm Tracking
New forecast layout! Learn more

10-Day Weather Forecast

Advertisements
Track Severe Weather on mobile